Date,TemperatureHighF,TemperatureAvgF,TemperatureLowF,DewpointHighF,DewpointAvgF,DewpointLowF,HumidityHigh,HumidityAvg,HumidityLow,PressureMaxIn,PressureMinIn,WindSpeedMaxMPH,WindSpeedAvgMPH,GustSpeedMaxMPH,PrecipitationSumIn
2013-1-1,25.5,0.2,-12.3,2.8,-7.6,-16.7,84,72,32,29.56,29.42,13,2,13,0.00
2013-1-2,28.4,3.8,-11.9,5.1,-3.7,-16.6,85,73,36,29.63,29.51,14,3,14,0.00
2013-1-3,36.0,-2.8,-20.7,-4.0,-13.1,-26.2,82,66,14,29.69,29.62,6,2,6,0.00
2013-1-4,38.1,4.9,-12.5,6.5,-5.7,-16.7,86,66,19,29.68,29.55,6,2,10,0.02
2013-1-5,35.8,6.6,-10.8,7.1,-5.3,-15.4,86,63,19,29.76,29.59,4,2,7,0.00
2013-1-6,46.0,11.1,-11.0,2.9,-4.8,-16.5,83,57,10,29.75,29.53,5,2,6,0.01
2013-1-7,52.7,13.9,-3.1,6.1,-2.7,-8.2,82,54,10,29.57,29.47,7,2,9,0.00
2013-1-8,37.6,12.7,-0.8,16.6,2.9,-8.5,89,67,22,29.78,29.46,13,4,16,0.00
2013-1-9,64.9,15.6,-3.5,17.1,4.3,-7.2,88,67,10,29.79,29.59,4,2,8,0.00
2013-1-10,39.7,19.0,4.3,8.8,4.0,-1.8,79,55,23,29.59,29.14,6,3,8,0.00
2013-1-11,23.7,11.5,-1.3,16.5,1.6,-15.0,91,67,20,29.23,28.95,20,5,23,0.00
2013-1-12,31.1,-2.2,-18.6,-2.9,-12.7,-23.4,84,65,15,29.29,29.21,14,3,14,0.00
2013-1-13,23.4,-5.9,-19.7,-4.9,-15.6,-24.9,79,65,21,29.33,29.24,8,2,8,0.00
2013-1-14,14.7,-11.2,-24.9,-8.5,-19.9,-30.4,79,66,25,29.43,29.30,11,3,14,0.00
2013-1-15,8.6,-6.2,-27.4,-0.9,-13.0,-33.3,83,72,48,29.69,29.43,4,2,6,0.00
2013-1-16,36.5,12.5,-1.8,14.9,4.9,-5.1,89,73,37,29.82,29.68,8,2,10,0.01
2013-1-17,47.8,12.2,-5.3,16.0,1.9,-8.9,88,68,20,29.85,29.76,8,2,9,0.01
2013-1-18,50.5,14.2,-4.5,13.6,0.2,-8.2,88,61,13,29.78,29.69,11,2,11,0.01
2013-1-19,51.6,16.9,-1.5,4.9,-1.2,-7.6,79,54,10,29.80,29.68,9,3,10,0.00
2013-1-20,46.0,16.4,-2.4,3.7,-2.3,-7.7,80,52,11,29.73,29.66,11,3,14,0.00
2013-1-21,45.5,16.4,-1.5,6.5,0.1,-6.3,82,55,14,29.75,29.66,13,3,15,0.00
2013-1-22,57.0,19.7,0.3,3.3,-4.0,-12.2,71,43,10,29.81,29.70,7,3,8,0.00
2013-1-23,70.5,25.9,2.3,13.3,-0.5,-9.2,59,39,10,29.81,29.73,12,3,14,0.00
2013-1-24,50.4,28.3,9.5,29.0,15.0,0.7,94,61,17,29.73,29.64,14,4,17,0.00
2013-1-25,46.9,33.6,29.7,30.6,28.1,27.2,95,81,49,29.72,29.62,8,1,9,0.02
2013-1-26,55.6,41.3,28.6,54.5,35.4,22.3,98,83,32,29.63,29.34,9,2,13,0.00
2013-1-27,49.8,29.9,11.5,29.7,21.2,6.6,98,74,30,29.41,29.33,9,2,13,0.11
2013-1-28,41.0,20.0,9.1,24.7,14.3,5.9,93,79,32,29.35,29.20,12,4,17,0.00
2013-1-29,21.7,8.1,-0.2,6.3,-0.3,-6.2,89,71,31,29.34,29.18,17,6,17,0.00
2013-1-30,19.8,11.6,0.3,10.3,4.1,-4.6,85,72,59,29.47,29.32,14,6,21,0.00
2013-1-31,32.9,20.3,10.4,17.1,12.4,7.1,88,72,46,29.66,29.46,11,4,16,0.01